Regional Weather Roundup
Issued by NWS Bismarck, ND

Home | Current Version | Previous Version | Text Only | Print | Product List | Glossary On
Versions: 1 2 3 4 5 6 7 8 9 10 11 12 13 14 15 16 17 18 19 20 21 22 23 24 25 26 27 28 29 30 31 32 33 34 35 36 37 38 39 40 41 42 43 44 45 46 47 48 49 50
000
ASUS43 KBIS 200059
RWRBIS

NWR BROADCAST TEXT
NATIONAL WEATHER SERVICE BISMARCK ND
800 PM CDT FRI SEP 19 2014

NOTE: "FAIR" INDICATES FEW OR NO CLOUDS BELOW 12,000 FEET WITH NO
SIGNIFICANT WEATHER AND/OR OBSTRUCTIONS TO VISIBILITY.


CITY           SKY/WX    TMP DP  RH WIND       PRES   REMARKS
WILLISTON      CLEAR     68  50  52 NW8       29.77R
MINOT          CLEAR     65  55  70 W14       29.71R
MINOT AFB      NOT AVBL
BISMARCK       CLOUDY    74  53  48 NW10      29.72R
DICKINSON      NOT AVBL
GARRISON         N/A     66  56  70 NW7       29.73R
HETTINGER ARPT CLOUDY    68  48  48 W9        29.83R
JAMESTOWN      NOT AVBL
CARRINGTON     FAIR      72  54  53 NW14      29.66R
CROSBY         FAIR      59  55  88 NW7       29.76R
HARVEY         MOCLDY    61  61 100 NW7       29.68R
HAZEN          FAIR      68  52  56 NW10      29.75R
LINTON         FAIR      75  52  43 W14       29.73R
MANDAN         FAIR      70  54  56 NW9       29.74R
OAKES            N/A     73  55  53 W8        29.65R
RUGBY          FAIR      64  59  82 NW10      29.67R
WATFORD CITY   FAIR      66  48  52 NW7       29.76R
$$

CITY           SKY/WX    TMP DP  RH WIND       PRES   REMARKS
GRAND FORKS    CLEAR     72  55  55 W9        29.52R
GRAND FORKS AF NOT AVBL
DEVILS LAKE    PTCLDY    70  55  60 NW16      29.61R
FARGO          MOCLDY    73  61  65 SW9       29.57R
CAVALIER       MOCLDY    64  55  72 N15G22    29.59R
GRAFTON        FAIR      64  61  88 N20       29.55R
GWINNER        CLEAR     70  57  64 SW7       29.65R
LANGDON        FAIR      61  55  82 N9        29.63R
ROLLA          LGT RAIN  63  57  82 NW9       29.68R
$$

CITY           SKY/WX    TMP DP  RH WIND       PRES   REMARKS
ABERDEEN       CLEAR     69  58  67 SW7       29.68R
MOBRIDGE       PTCLDY    71  54  54 NW9       29.73R
RAPID CITY     PTCLDY    73  49  42 N13       29.88R
GLASGOW        PTCLDY    69  53  56 NW5       29.80R
SIDNEY         PTCLDY    66  52  59 N5        29.80R
WOLF POINT     PTCLDY    70  52  52 W5        29.79R
GLENDIVE       CLEAR     68  48  49 NW8       29.84R
MILES CITY     MOCLDY    72  44  36 NW10      29.87R
BAKER          PTCLDY    68  46  45 W12       29.87R
$$

CITY           SKY/WX    TMP DP  RH WIND       PRES   REMARKS
BILLINGS       PTCLDY    74  43  32 VRB3      29.96R
GREAT FALLS    CLEAR     67  41  38 W15       29.96R
$$




USA.gov is the U.S. government's official web portal to all federal, state and local government web resources and services.